This is the latest recevied weather packets stored in our database for station/object K6GKS. If no packets are shown the sender has not sent any weather packets the latest 10 day(s).
| Time | Temp. | Humidity | Pressure | Rain* | Wind** | Luminosity | Snow |
|---|---|---|---|---|---|---|---|
| 1787524922 | 35.56° C | 21% | 1010 hPa | 0 mm | - | - | - |
| 1787524742 | 35.56° C | 21% | 1010 hPa | 0 mm | - | - | - |
| 1787524562 | 35.56° C | 22% | 1009.7 hPa | 0 mm | - | - | - |
| 1787524382 | 35° C | 22% | 1010 hPa | 0 mm | - | - | - |
| 1787524203 | 35° C | 22% | 1010 hPa | 0 mm | - | - | - |
| 1787524023 | 35.56° C | 21% | 1009.9 hPa | 0 mm | - | - | - |
| 1787523842 | 35.56° C | 21% | 1010 hPa | 0 mm | - | - | - |
| 1787523662 | 35.56° C | 21% | 1009.8 hPa | 0 mm | - | - | - |
| 1787523303 | 36.11° C | 21% | 1010.1 hPa | 0 mm | - | - | - |
| 1787523122 | 36.11° C | 21% | 1010.2 hPa | 0 mm | - | - | - |
| 1787522943 | 36.11° C | 21% | 1010.3 hPa | 0 mm | - | - | - |
| 1787522763 | 36.11° C | 19% | 1010.2 hPa | 0 mm | - | - | - |
| 1787522583 | 36.11° C | 20% | 1010.1 hPa | 0 mm | - | - | - |
| 1787522402 | 35.56° C | 21% | 1010.1 hPa | 0 mm | - | - | - |
| 1787522222 | 35° C | 21% | 1010.3 hPa | 0 mm | - | - | - |
| 1787522042 | 34.44° C | 22% | 1010.6 hPa | 0 mm | - | - | - |
| 1787521862 | 34.44° C | 21% | 1010.6 hPa | 0 mm | - | - | - |
| 1787521682 | 35.56° C | 20% | 1010.3 hPa | 0 mm | - | - | - |
| 1787521502 | 36.11° C | 20% | 1010.6 hPa | 0 mm | - | - | - |
| 1787521322 | 35.56° C | 22% | 1010.7 hPa | 0 mm | - | - | - |
| 1787521142 | 35.56° C | 22% | 1010.7 hPa | 0 mm | - | - | - |
| 1787520962 | 35° C | 22% | 1010.7 hPa | 0 mm | - | - | - |
| 1787520782 | 35° C | 22% | 1010.8 hPa | 0 mm | - | - | - |
| 1787520603 | 35° C | 22% | 1010.6 hPa | 0 mm | - | - | - |
| 1787520422 | 34.44° C | 23% | 1010.6 hPa | 0 mm | - | - | - |
* Rain latest hour (hover to see other rain measurements)
** Current wind speed in m/s (hover to see current wind gust speed)